OneWeb SL0588

operational
NORAD ID: 55153 Int'l Des: 2023-004 Owner: ONEWEBN Country: UK Constellation: oneweb
LEOCIRCULARPOLARONEWEB_TYPE

Über OneWeb SL0588

Beschreibung wird geladen...

Live-Position

3D-Globus wird geladen...

Nächste Überflüge

Höhenverlauf

Altitude vs Time

uPlot chart will show altitude changes over time

Zweizeiliger Elementsatz

1 55153U 23004P 25351.30764976 .00000056 00000-0 10829-3 0 9990
2 55153 87.9169 11.6060 0001385 101.8129 258.3158 13.18686675145726
Epoch: 17. Dez. 2025 • Age: 13 hours

Aktueller Status

Höhe 1207.4 km
Geschwindigkeit 7.25 km/s
Subsatellitenpunkt -43.60°S, 15.83°W
Startdatum 10. Jan. 2023
Alter 2.9 years
Typ internet

Technische Details

Klassifizierung Payload
Masse 148.00 kg
Trockenmasse 140.00 kg
Gesamtmasse 148.00 kg
Länge 1.30 m
Durchmesser 1.00 m
Spannweite 5.00 m
Form Trapezoid+2 pan
Hersteller ONEWUS
Bus-Typ ARROW
Phasenstatus In Orbit
Besitzer/Staat ONEWEBN/UK

Große Konstellationen

Loading constellations...